• In Germany
  • List of Countries
  • For 7 days
  • Water Temperature
  • Satellite Maps
  • Weather Map
  • Weather Widgets
  • user-avatar
    Login

    Hourly Weather Tskhaltubo

    Today, 22 February, Thursday

    Time Temperature Precipitation Wind Pressure Humidity
    00:00 +8°C° 0 mm 2 mps 744 mmHg 65%
    01:00 +8°C° 0 mm 2 mps 744 mmHg 65%
    02:00 +8°C° 0 mm 2 mps 743 mmHg 66%
    03:00 +8°C° 0 mm 3 mps 743 mmHg 63%
    04:00 +8°C° 0 mm 2 mps 743 mmHg 64%
    05:00 +8°C° 0 mm 2 mps 743 mmHg 65%
    06:00 +7°C° 0 mm 2 mps 743 mmHg 66%
    07:00 +8°C° 0 mm 2 mps 743 mmHg 63%
    08:00 +9°C° 0 mm 2 mps 743 mmHg 61%
    09:00 +12°C° 0 mm 2 mps 742 mmHg 59%
    10:00 +13°C° 0 mm 2 mps 742 mmHg 56%
    11:00 +14°C° 0 mm 2 mps 742 mmHg 54%
    12:00 +15°C° 0 mm 2 mps 742 mmHg 51%
    13:00 +16°C° 0 mm 1 mps 741 mmHg 51%
    14:00 +16°C° 0 mm 1 mps 741 mmHg 50%
    15:00 +16°C° 0 mm 1 mps 741 mmHg 50%
    16:00 +15°C° 0 mm 1 mps 741 mmHg 56%
    17:00 +13°C° 0 mm 1 mps 741 mmHg 61%
    18:00 +11°C° 0 mm 0 mps 742 mmHg 67%
    19:00 +11°C° 0 mm 1 mps 742 mmHg 68%
    20:00 +11°C° 0 mm 1 mps 742 mmHg 69%
    21:00 +10°C° 0 mm 1 mps 743 mmHg 71%
    22:00 +10°C° 0 mm 1 mps 743 mmHg 70%
    23:00 +9°C° 0 mm 2 mps 743 mmHg 70%

    Tomorrow, 23 February, Friday

    Time Temperature Precipitation Wind Pressure Humidity
    00:00 +8°C° 0 mm 2 mps 743 mmHg 69%
    01:00 +8°C° 0 mm 2 mps 743 mmHg 68%
    02:00 +8°C° 0 mm 2 mps 743 mmHg 67%
    03:00 +8°C° 0 mm 2 mps 742 mmHg 66%
    04:00 +8°C° 0 mm 2 mps 742 mmHg 65%
    05:00 +7°C° 0 mm 2 mps 742 mmHg 64%
    06:00 +7°C° 0 mm 2 mps 742 mmHg 63%
    07:00 +9°C° 0 mm 2 mps 742 mmHg 60%
    08:00 +10°C° 0 mm 2 mps 742 mmHg 57%
    09:00 +12°C° 0 mm 2 mps 741 mmHg 54%
    10:00 +13°C° 0 mm 2 mps 741 mmHg 52%
    11:00 +15°C° 0 mm 2 mps 741 mmHg 49%
    12:00 +16°C° 0 mm 2 mps 740 mmHg 46%
    13:00 +17°C° 0 mm 2 mps 740 mmHg 45%
    14:00 +17°C° 0 mm 2 mps 739 mmHg 45%
    15:00 +18°C° 0 mm 1 mps 739 mmHg 44%
    16:00 +16°C° 0 mm 1 mps 739 mmHg 50%
    17:00 +14°C° 0 mm 1 mps 740 mmHg 56%
    18:00 +12°C° 0 mm 0 mps 740 mmHg 61%
    19:00 +12°C° 0 mm 1 mps 740 mmHg 63%
    20:00 +11°C° 0 mm 1 mps 741 mmHg 65%
    21:00 +11°C° 0 mm 1 mps 741 mmHg 66%
    22:00 +10°C° 0 mm 1 mps 741 mmHg 68%
    23:00 +10°C° 0 mm 1 mps 741 mmHg 70%

    Day after tomorrow, 24 February, Saturday

    Time Temperature Precipitation Wind Pressure Humidity
    00:00 +10°C° 0 mm 1 mps 741 mmHg 71%
    01:00 +9°C° 0 mm 1 mps 741 mmHg 73%
    02:00 +8°C° 0 mm 0 mps 741 mmHg 74%
    03:00 +8°C° 0 mm 0 mps 741 mmHg 76%
    04:00 +7°C° 0 mm 0 mps 741 mmHg 77%
    05:00 +8°C° 0 mm 1 mps 741 mmHg 77%
    06:00 +8°C° 0 mm 1 mps 741 mmHg 78%
    07:00 +8°C° 0.1 mm 0 mps 741 mmHg 75%
    08:00 +8°C° 0.1 mm 0 mps 741 mmHg 72%
    09:00 +9°C° 0.1 mm 0 mps 741 mmHg 68%
    10:00 +11°C° 0.1 mm 1 mps 741 mmHg 67%
    11:00 +12°C° 0.1 mm 1 mps 740 mmHg 66%
    12:00 +13°C° 0.1 mm 1 mps 740 mmHg 65%
    13:00 +13°C° 0.1 mm 1 mps 740 mmHg 67%
    14:00 +13°C° 0.1 mm 2 mps 739 mmHg 69%
    15:00 +13°C° 0.1 mm 2 mps 739 mmHg 70%
    16:00 +12°C° 0.1 mm 2 mps 739 mmHg 76%
    17:00 +11°C° 0.1 mm 1 mps 739 mmHg 81%
    18:00 +10°C° 0.1 mm 1 mps 739 mmHg 87%
    19:00 +10°C° 0 mm 1 mps 740 mmHg 88%
    20:00 +10°C° 0 mm 1 mps 740 mmHg 89%
    21:00 +8°C° 0 mm 0 mps 740 mmHg 90%
    22:00 +9°C° 0 mm 1 mps 740 mmHg 89%
    23:00 +9°C° 0 mm 1 mps 740 mmHg 87%

    25 February, Sunday

    Time Temperature Precipitation Wind Pressure Humidity
    00:00 +9°C° 0 mm 1 mps 740 mmHg 85%
    01:00 +9°C° 0 mm 1 mps 740 mmHg 82%
    02:00 +9°C° 0 mm 1 mps 740 mmHg 79%
    03:00 +7°C° 0 mm 2 mps 740 mmHg 76%
    04:00 +7°C° 0 mm 2 mps 740 mmHg 74%
    05:00 +7°C° 0 mm 2 mps 740 mmHg 71%
    06:00 +7°C° 0 mm 2 mps 740 mmHg 69%
    07:00 +8°C° 0 mm 2 mps 739 mmHg 64%
    08:00 +10°C° 0 mm 2 mps 739 mmHg 60%
    09:00 +12°C° 0 mm 2 mps 739 mmHg 55%
    10:00 +13°C° 0 mm 2 mps 738 mmHg 51%
    11:00 +15°C° 0 mm 2 mps 738 mmHg 48%
    12:00 +16°C° 0 mm 2 mps 737 mmHg 44%
    13:00 +17°C° 0 mm 2 mps 737 mmHg 43%
    14:00 +17°C° 0 mm 2 mps 736 mmHg 42%
    15:00 +18°C° 0 mm 1 mps 736 mmHg 41%
    16:00 +16°C° 0 mm 1 mps 736 mmHg 45%
    17:00 +15°C° 0 mm 1 mps 737 mmHg 50%
    18:00 +13°C° 0 mm 1 mps 737 mmHg 54%
    19:00 +13°C° 0 mm 1 mps 738 mmHg 56%
    20:00 +12°C° 0 mm 2 mps 738 mmHg 58%
    21:00 +10°C° 0 mm 2 mps 738 mmHg 59%
    22:00 +10°C° 0 mm 2 mps 738 mmHg 60%
    23:00 +10°C° 0 mm 2 mps 738 mmHg 61%

    26 February, Monday

    Time Temperature Precipitation Wind Pressure Humidity
    00:00 +9°C° 0 mm 2 mps 738 mmHg 62%
    01:00 +9°C° 0 mm 2 mps 738 mmHg 63%
    02:00 +10°C° 0 mm 1 mps 738 mmHg 64%
    03:00 +10°C° 0 mm 1 mps 738 mmHg 65%
    04:00 +9°C° 0 mm 1 mps 739 mmHg 68%
    05:00 +9°C° 0 mm 1 mps 739 mmHg 72%
    06:00 +9°C° 0 mm 1 mps 739 mmHg 75%
    07:00 +9°C° 0.5 mm 1 mps 740 mmHg 80%
    08:00 +8°C° 0.5 mm 2 mps 740 mmHg 85%
    09:00 +8°C° 0.5 mm 2 mps 741 mmHg 89%
    10:00 +8°C° 1 mm 2 mps 741 mmHg 89%
    11:00 +8°C° 1 mm 2 mps 741 mmHg 89%
    12:00 +8°C° 1 mm 3 mps 741 mmHg 90%
    13:00 +8°C° 0.7 mm 3 mps 741 mmHg 89%
    14:00 +7°C° 0.7 mm 3 mps 741 mmHg 88%
    15:00 +7°C° 0.7 mm 2 mps 741 mmHg 88%
    16:00 +7°C° 0.3 mm 2 mps 741 mmHg 89%
    17:00 +7°C° 0.3 mm 2 mps 742 mmHg 90%
    18:00 +7°C° 0.3 mm 1 mps 742 mmHg 91%
    19:00 +7°C° 0.1 mm 1 mps 743 mmHg 91%
    20:00 +7°C° 0.1 mm 1 mps 743 mmHg 92%
    21:00 +5°C° 0.1 mm 0 mps 743 mmHg 92%
    22:00 +6°C° 0 mm 1 mps 743 mmHg 91%
    23:00 +6°C° 0 mm 1 mps 743 mmHg 89%

    27 February, Tuesday

    Time Temperature Precipitation Wind Pressure Humidity
    00:00 +6°C° 0 mm 1 mps 743 mmHg 87%
    01:00 +6°C° 0 mm 1 mps 743 mmHg 83%
    02:00 +5°C° 0 mm 2 mps 742 mmHg 79%
    03:00 +5°C° 0 mm 2 mps 742 mmHg 75%
    04:00 +5°C° 0 mm 2 mps 742 mmHg 72%
    05:00 +5°C° 0 mm 2 mps 742 mmHg 69%
    06:00 +5°C° 0 mm 2 mps 742 mmHg 66%
    07:00 +7°C° 0 mm 3 mps 742 mmHg 63%
    08:00 +8°C° 0 mm 3 mps 741 mmHg 59%
    09:00 +10°C° 0 mm 3 mps 741 mmHg 56%
    10:00 +11°C° 0 mm 3 mps 741 mmHg 54%
    11:00 +13°C° 0 mm 4 mps 740 mmHg 52%
    12:00 +14°C° 0 mm 4 mps 740 mmHg 50%
    13:00 +15°C° 0 mm 4 mps 739 mmHg 49%
    14:00 +15°C° 0 mm 4 mps 739 mmHg 48%
    15:00 +15°C° 0 mm 4 mps 739 mmHg 48%
    16:00 +14°C° 0 mm 4 mps 739 mmHg 51%
    17:00 +12°C° 0 mm 4 mps 740 mmHg 54%
    18:00 +11°C° 0 mm 3 mps 740 mmHg 57%
    19:00 +10°C° 0 mm 3 mps 741 mmHg 58%
    20:00 +10°C° 0 mm 3 mps 741 mmHg 58%
    21:00 +9°C° 0 mm 3 mps 742 mmHg 59%
    22:00 +9°C° 0 mm 3 mps 742 mmHg 59%
    23:00 +9°C° 0 mm 3 mps 742 mmHg 60%
    Show more